GW3407 Weather Reports


time (UTC)temp
F
wind
direction
speed
knots
gust
knots
rain 1hr
in
rain 24hr
in
rain mn
in
humidity
%
barometer
mb
20260510164445 68 282 0.0 3.5 0.00 0.00 0.00 76 1014.4
20260510163941 67 270 0.0 2.6 0.00 0.00 0.00 76 1014.5
20260510163437 67 7 0.9 4.3 0.00 0.00 0.00 75 1014.5
20260510162937 68 0 0.9 2.6 0.00 0.00 0.00 76 1014.5
20260510162429 67 308 0.0 2.6 0.00 0.00 0.00 74 1014.6
20260510161925 67 325 0.0 2.6 0.00 0.00 0.00 75 1014.4
20260510161420 68 294 1.7 2.6 0.00 0.00 0.00 75 1014.3
20260510160918 69 32 0.0 2.6 0.00 0.00 0.00 76 1014.3
20260510160414 70 339 0.0 3.5 0.00 0.00 0.00 72 1014.3
20260510155908 69 292 2.6 2.6 0.00 0.00 0.00 75 1014.3
20260510155405 68 295 2.6 2.6 0.00 0.00 0.00 75 1014.2
20260510154901 68 0 0.0 5.2 0.00 0.00 0.00 75 1014.2
20260510154357 69 270 1.7 1.7 0.00 0.00 0.00 75 1014.1
20260510153851 68 285 0.9 3.5 0.00 0.00 0.00 76 1014.2
20260510153347 68 319 1.7 2.6 0.00 0.00 0.00 79 1013.9
20260510152844 67 243 0.0 1.7 0.00 0.00 0.00 77 1014.1
20260510152342 66 322 1.7 2.6 0.00 0.00 0.00 78 1014.3
20260510151838 66 286 0.0 2.6 0.00 0.00 0.00 79 1014.3
20260510151336 66 270 0.9 1.7 0.00 0.00 0.00 79 1014.2
20260510150831 66 331 0.9 2.6 0.00 0.00 0.00 78 1013.9
20260510150327 67 345 0.9 3.5 0.00 0.00 0.00 73 1014.0
20260510145824 67 292 1.7 2.6 0.00 0.00 0.00 73 1013.5
20260510145320 68 338 0.0 2.6 0.00 0.00 0.00 72 1013.6
20260510144817 69 320 0.0 1.7 0.00 0.00 0.00 71 1013.1
20260510144314 68 309 0.0 2.6 0.00 0.00 0.00 71 1013.2
20260510143813 68 345 0.9 3.5 0.00 0.00 0.00 71 1013.6
20260510143310 70 232 3.5 6.1 0.00 0.00 0.00 68 1013.5
20260510142806 69 236 2.6 7.8 0.00 0.00 0.00 75 1013.9
20260510142306 69 216 2.6 2.6 0.00 0.00 0.00 72 1013.9
20260510141800 69 286 0.9 1.7 0.00 0.00 0.00 71 1013.7
20260510141257 67 270 2.6 2.6 0.00 0.00 0.00 73 1013.8
20260510140754 67 251 3.5 3.5 0.00 0.00 0.00 74 1013.4
20260510140250 67 270 0.0 3.5 0.00 0.00 0.00 73 1013.7
20260510135744 66 245 7.0 12.2 0.00 0.00 0.00 72 1013.5
20260510135240 68 262 2.6 5.2 0.00 0.00 0.00 74 1013.6
20260510134738 67 222 2.6 6.1 0.00 0.00 0.00 72 1013.5
20260510134235 65 259 3.5 9.6 0.00 0.00 0.00 74 1013.6
20260510133730 65 240 2.6 6.1 0.00 0.00 0.00 75 1013.6
20260510133226 65 274 2.6 7.0 0.00 0.00 0.00 76 1013.9
20260510132722 64 285 2.6 6.1 0.00 0.00 0.00 76 1013.8
20260510132220 64 239 3.5 6.1 0.00 0.00 0.00 78 1013.6
20260510131717 64 241 4.3 6.1 0.00 0.00 0.00 77 1013.6
20260510131215 64 114 0.0 2.6 0.00 0.00 0.00 79 1013.5
20260510130711 63 230 2.6 5.2 0.00 0.00 0.00 78 1013.5
20260510130209 63 204 1.7 6.1 0.00 0.00 0.00 77 1013.2
20260510125704 63 300 0.0 6.1 0.00 0.00 0.00 77 1013.2
20260510125200 64 175 1.7 1.7 0.00 0.00 0.00 80 1013.4
20260510124652 62 275 1.7 4.3 0.00 0.00 0.00 78 1013.1
20260510124149 62 203 0.9 7.0 0.00 0.00 0.00 79 1013.1
20260510123644 62 259 2.6 7.0 0.00 0.00 0.00 79 1013.0
20260510123141 62 209 1.7 7.0 0.00 0.00 0.00 78 1013.0
20260510122637 62 229 0.0 4.3 0.00 0.00 0.00 79 1012.9
20260510122133 62 111 0.0 1.7 0.00 0.00 0.00 82 1013.1
20260510121630 62 232 1.7 3.5 0.00 0.00 0.00 81 1012.9
20260510121127 62 180 0.0 1.7 0.00 0.00 0.00 82 1012.9
20260510120625 61 277 2.6 3.5 0.00 0.00 0.00 81 1012.9
20260510120120 61 241 3.5 7.0 0.00 0.00 0.00 83 1013.0
20260510115617 60 180 0.0 1.7 0.00 0.00 0.00 89 1012.8
20260510115115 57 195 0.0 1.7 0.00 0.00 0.00 94 1012.9
20260510114610 56 132 0.0 1.7 0.00 0.00 0.00 95 1012.9
20260510114106 55 78 0.9 2.6 0.00 0.00 0.00 96 1012.8
20260510113602 54 23 0.0 2.6 0.00 0.00 0.00 96 1012.6
20260510113059 54 348 0.9 1.7 0.00 0.00 0.00 97 1012.6
20260510112556 53 112 1.7 2.6 0.00 0.00 0.00 97 1012.7
20260510112052 53 72 1.7 2.6 0.00 0.00 0.00 98 1012.2
20260510111549 53 126 0.0 2.6 0.00 0.00 0.00 98 1012.4
20260510111045 53 297 0.0 1.7 0.00 0.00 0.00 98 1012.1
20260510110541 52 251 0.0 1.7 0.00 0.00 0.00 98 1012.1
20260510110037 52 66 1.7 2.6 0.00 0.00 0.00 98 1011.9
20260510105533 51 53 0.0 1.7 0.00 0.00 0.00 98 1012.2
20260510105028 52 74 1.7 2.6 0.00 0.00 0.00 98 1011.7
20260510104525 52 340 0.9 1.7 0.00 0.00 0.00 98 1011.7
20260510104021 51 217 1.7 1.7 0.00 0.00 0.00 97 1011.9
20260510103518 52 160 0.9 1.7 0.00 0.00 0.00 97 1011.6
20260510103014 52 63 0.0 1.7 0.00 0.00 0.00 97 1011.6
20260510102510 52 97 0.0 1.7 0.00 0.00 0.00 97 1011.6
20260510102007 52 188 0.0 2.6 0.00 0.00 0.00 97 1011.5
20260510101504 52 77 0.9 1.7 0.00 0.00 0.00 96 1011.4
20260510101003 52 277 0.0 0.9 0.00 0.00 0.00 96 1011.4
20260510100458 52 336 0.0 2.6 0.00 0.00 0.00 95 1011.3
20260510095955 53 166 1.7 2.6 0.00 0.00 0.00 95 1011.3
20260510095451 53 81 1.7 3.5 0.00 0.00 0.00 94 1011.4
20260510094950 54 94 1.7 3.5 0.00 0.00 0.00 92 1011.3
20260510094445 54 234 0.0 2.6 0.00 0.00 0.00 92 1011.0
20260510093941 55 212 0.9 2.6 0.00 0.00 0.00 90 1010.9
20260510093437 56 83 0.0 1.7 0.00 0.00 0.00 90 1010.9
20260510092933 55 188 0.0 2.6 0.00 0.00 0.00 91 1010.7
20260510092431 55 60 0.0 2.6 0.00 0.00 0.00 91 1010.6
20260510091929 56 192 0.9 1.7 0.00 0.00 0.00 89 1010.9
20260510091428 56 186 0.0 1.7 0.00 0.00 0.00 89 1010.6
20260510090924 57 98 0.0 1.7 0.00 0.00 0.00 88 1010.7
20260510090421 57 135 0.0 2.6 0.00 0.00 0.00 88 1010.5
20260510085917 58 225 1.7 4.3 0.00 0.00 0.00 87 1010.7
20260510085412 58 197 1.7 2.6 0.00 0.00 0.00 87 1010.6
20260510084907 57 188 0.0 2.6 0.00 0.00 0.00 87 1010.3
20260510084405 57 258 0.9 1.7 0.00 0.00 0.00 87 1010.6
20260510083901 57 221 1.7 2.6 0.00 0.00 0.00 87 1010.4
20260510083358 58 228 2.6 3.5 0.00 0.00 0.00 87 1010.4
20260510082853 57 229 0.0 1.7 0.00 0.00 0.00 89 1010.6
20260510082351 56 180 0.0 1.7 0.00 0.00 0.00 89 1010.6
20260510081849 57 195 0.9 1.7 0.00 0.00 0.00 88 1010.4
20260510081346 57 192 0.0 1.7 0.00 0.00 0.00 89 1010.5
20260510080842 56 188 0.0 2.6 0.00 0.00 0.00 89 1010.4
20260510080331 57 279 0.0 2.6 0.00 0.00 0.00 87 1010.4
20260510075828 57 270 0.0 2.6 0.00 0.00 0.00 86 1010.4
20260510075325 58 159 0.0 1.7 0.00 0.00 0.00 87 1010.3
20260510074822 58 188 0.0 2.6 0.00 0.00 0.00 87 1010.3
20260510074314 58 201 0.0 1.7 0.00 0.00 0.00 86 1010.1
20260510073809 58 185 0.0 2.6 0.00 0.00 0.00 86 1010.1
20260510073305 58 159 0.0 1.7 0.00 0.00 0.00 86 1010.0
20260510072801 58 166 0.0 1.7 0.00 0.00 0.00 85 1010.1
20260510072258 59 157 0.0 2.6 0.00 0.00 0.00 84 1010.1
20260510071754 59 270 0.0 4.3 0.00 0.00 0.00 84 1010.1
20260510071251 59 7 0.0 3.5 0.00 0.00 0.00 84 1010.2
20260510070751 59 270 0.0 1.7 0.00 0.00 0.00 85 1010.1
20260510070247 59 145 3.5 3.5 0.00 0.00 0.00 85 1010.1
20260510065747 59 90 0.0 3.5 0.00 0.00 0.00 85 1010.1
20260510065244 59 166 0.9 4.3 0.00 0.00 0.00 84 1010.1
20260510064740 59 278 0.0 2.6 0.00 0.00 0.00 84 1009.9
20260510064238 59 180 0.0 1.7 0.00 0.00 0.00 85 1010.1
20260510063734 58 348 0.0 1.7 0.00 0.00 0.00 85 1010.1
20260510063231 59 259 0.0 3.5 0.00 0.00 0.00 85 1010.1
20260510062727 59 233 1.7 3.5 0.00 0.00 0.00 85 1010.1
20260510062223 59 165 0.0 2.6 0.00 0.00 0.00 85 1010.2
20260510061719 59 180 0.0 2.6 0.00 0.00 0.00 84 1010.2
20260510061216 59 187 0.0 2.6 0.00 0.00 0.00 83 1010.0
20260510060712 60 160 0.0 2.6 0.00 0.00 0.00 83 1010.2
20260510060209 60 229 1.7 3.5 0.00 0.00 0.00 82 1010.1
20260510055706 60 166 2.6 2.6 0.00 0.00 0.00 82 1010.1
20260510055204 60 90 0.0 4.3 0.00 0.00 0.00 83 1010.3
20260510054659 59 180 0.0 1.7 0.00 0.00 0.00 84 1010.3
20260510054155 59 257 0.0 2.6 0.00 0.00 0.00 84 1010.1
20260510053654 60 286 0.0 3.5 0.00 0.00 0.00 83 1010.2
20260510053151 59 238 2.6 2.6 0.00 0.00 0.00 84 1010.2
20260510052647 60 283 1.7 2.6 0.00 0.00 0.00 84 1010.2
20260510052143 60 187 0.0 1.7 0.00 0.00 0.00 83 1010.3
20260510051639 60 175 0.0 4.3 0.00 0.00 0.00 83 1010.4
20260510051135 60 267 3.5 3.5 0.00 0.00 0.00 83 1010.4
20260510050633 60 308 1.7 3.5 0.00 0.00 0.00 83 1010.3
20260510050130 60 68 2.6 2.6 0.00 0.00 0.00 84 1010.4
20260510045626 60 264 0.0 2.6 0.00 0.00 0.00 83 1010.4
20260510045123 60 221 1.7 2.6 0.00 0.00 0.00 84 1010.2
20260510044619 60 147 0.0 6.1 0.00 0.00 0.00 82 1010.6
20260510044117 60 266 2.6 2.6 0.00 0.00 0.00 83 1010.4
20260510043613 60 255 0.0 3.5 0.00 0.00 0.00 82 1010.5
20260510043109 61 270 0.0 2.6 0.00 0.00 0.00 81 1010.4
20260510042607 61 263 6.1 7.0 0.00 0.00 0.00 82 1010.6
20260510042102 61 260 1.7 2.6 0.00 0.00 0.00 82 1010.8
20260510041600 61 221 1.7 2.6 0.00 0.00 0.00 82 1010.5
20260510041057 60 185 0.9 2.6 0.00 0.00 0.00 83 1010.5
20260510040554 60 254 0.0 5.2 0.00 0.00 0.00 82 1010.5
20260510040050 60 180 0.9 2.6 0.00 0.00 0.00 82 1010.5
20260510035547 60 212 1.7 2.6 0.00 0.00 0.00 83 1010.4
20260510035046 60 71 0.0 2.6 0.00 0.00 0.00 83 1010.7
20260510034544 60 285 0.0 2.6 0.00 0.00 0.00 82 1010.4
20260510034041 60 270 2.6 2.6 0.00 0.00 0.00 82 1010.6
20260510033537 61 190 1.7 2.6 0.00 0.00 0.00 82 1010.6
20260510033035 61 270 0.0 1.7 0.00 0.00 0.00 81 1010.5
20260510032531 61 254 0.9 2.6 0.00 0.00 0.00 80 1010.6
20260510032026 62 213 2.6 5.2 0.00 0.00 0.00 79 1010.5
20260510031521 62 290 2.6 5.2 0.00 0.00 0.00 78 1010.4
20260510031017 62 215 0.9 2.6 0.00 0.00 0.00 79 1010.2
20260510030508 62 229 1.7 3.5 0.00 0.00 0.00 79 1010.3
20260510030005 62 259 3.5 6.1 0.00 0.00 0.00 79 1010.2
20260510025502 62 212 1.7 2.6 0.00 0.00 0.00 80 1010.3
20260510025000 62 117 1.7 6.1 0.00 0.00 0.00 78 1010.1
20260510024456 62 250 0.0 2.6 0.00 0.00 0.00 80 1010.2
20260510023952 62 68 0.0 1.7 0.00 0.00 0.00 80 1009.9
20260510023448 61 75 2.6 2.6 0.00 0.00 0.00 80 1010.0
20260510022946 61 185 0.9 2.6 0.00 0.00 0.00 80 1009.6
20260510022445 61 166 0.9 2.6 0.00 0.00 0.00 82 1009.5
20260510021944 61 198 0.0 1.7 0.00 0.00 0.00 81 1009.5
20260510021442 61 243 0.0 1.7 0.00 0.00 0.00 80 1009.9
20260510020939 62 172 0.0 1.7 0.00 0.00 0.00 80 1009.8
20260510020439 62 15 0.0 1.7 0.00 0.00 0.00 79 1009.6
20260510015935 62 246 1.7 4.3 0.00 0.00 0.00 78 1009.7
20260510015431 62 159 0.0 2.6 0.00 0.00 0.00 79 1009.7
20260510014926 61 213 0.0 1.7 0.00 0.00 0.00 79 1009.5
20260510014424 62 311 1.7 2.6 0.00 0.00 0.00 79 1009.4
20260510013920 62 120 0.0 1.7 0.00 0.00 0.00 78 1009.3
20260510013415 62 162 0.9 2.6 0.00 0.00 0.00 77 1009.4
20260510012910 63 261 1.7 2.6 0.00 0.00 0.00 76 1009.4
20260510012406 63 233 0.0 2.6 0.00 0.00 0.00 76 1008.9
20260510011900 63 123 2.6 2.6 0.00 0.00 0.00 77 1009.0
20260510011356 63 270 0.9 2.6 0.00 0.00 0.00 76 1009.0
20260510010852 63 162 0.9 2.6 0.00 0.00 0.00 76 1008.9
20260510010350 63 154 0.0 2.6 0.00 0.00 0.00 75 1008.8
20260510005846 63 315 0.0 1.7 0.00 0.00 0.00 75 1008.5
20260510005343 64 119 2.6 2.6 0.00 0.00 0.00 74 1008.4
20260510004840 64 53 0.0 2.6 0.00 0.00 0.00 74 1008.4
20260510004338 64 194 0.0 2.6 0.00 0.00 0.00 74 1008.4
20260510003835 65 186 0.0 2.6 0.00 0.00 0.00 71 1008.5
20260510003332 65 248 4.3 5.2 0.00 0.00 0.00 71 1008.5
20260510002830 65 168 0.0 2.6 0.00 0.00 0.00 71 1008.6
20260510002328 66 175 1.7 3.5 0.00 0.00 0.00 70 1008.4
20260510001825 66 162 0.9 2.6 0.00 0.00 0.00 70 1008.4
20260510001323 67 292 0.0 5.2 0.00 0.00 0.00 69 1008.2
20260510000818 67 195 0.0 4.3 0.00 0.00 0.00 68 1008.0
20260510000318 67 297 1.7 2.6 0.00 0.00 0.00 67 1008.1
20260509235813 68 294 0.9 7.8 0.00 0.00 0.00 67 1007.8
20260509235310 68 144 1.7 2.6 0.00 0.00 0.00 65 1007.9
20260509234805 69 246 0.9 2.6 0.00 0.00 0.00 64 1007.7
20260509234302 69 165 0.0 6.1 0.00 0.00 0.00 64 1007.9
20260509233801 69 113 0.0 2.6 0.00 0.00 0.00 65 1007.8
20260509233258 70 297 3.5 3.5 0.00 0.00 0.00 64 1007.9
20260509232753 70 262 0.9 5.2 0.00 0.00 0.00 63 1007.7
20260509232251 70 253 5.2 7.8 0.00 0.00 0.00 62 1008.0
20260509231747 70 260 4.3 9.6 0.00 0.00 0.00 62 1007.9
20260509231244 71 257 2.6 9.6 0.00 0.00 0.00 61 1007.9
20260509230742 71 174 0.9 4.3 0.00 0.00 0.00 61 1007.7
20260509230239 71 198 2.6 9.6 0.00 0.00 0.00 60 1007.8
20260509225734 72 237 3.5 6.1 0.00 0.00 0.00 58 1007.8
20260509225230 72 30 0.0 8.7 0.00 0.00 0.00 58 1007.8
20260509224726 71 220 2.6 9.6 0.00 0.00 0.00 58 1007.9
20260509224223 72 90 1.7 7.8 0.00 0.00 0.00 58 1007.9
20260509223720 71 296 3.5 9.6 0.00 0.00 0.00 58 1007.7
20260509223217 72 281 5.2 6.1 0.00 0.00 0.00 59 1007.8
20260509222714 71 229 1.7 6.1 0.00 0.00 0.00 60 1007.9
20260509222209 71 301 2.6 2.6 0.00 0.00 0.00 61 1007.7
20260509221705 72 265 0.0 6.1 0.00 0.00 0.00 59 1007.8
20260509221201 71 215 0.9 8.7 0.00 0.00 0.00 58 1007.9
20260509220657 72 180 0.0 9.6 0.00 0.00 0.00 58 1007.9
20260509220154 72 308 1.7 8.7 0.00 0.00 0.00 58 1008.0
20260509215650 72 253 3.5 7.0 0.00 0.00 0.00 58 1007.9
20260509215147 73 297 1.7 3.5 0.00 0.00 0.00 60 1007.9
20260509214644 72 248 2.6 9.6 0.00 0.00 0.00 58 1008.2
20260509214140 73 255 4.3 7.0 0.00 0.00 0.00 59 1008.1
20260509213637 72 239 2.6 5.2 0.00 0.00 0.00 60 1008.0
20260509213133 73 330 2.6 5.2 0.00 0.00 0.00 60 1008.1
20260509212631 72 274 2.6 10.4 0.00 0.00 0.00 61 1008.2
20260509212127 73 257 0.0 6.1 0.00 0.00 0.00 61 1008.5
20260509211624 73 191 1.7 3.5 0.00 0.00 0.00 60 1008.2
20260509211120 74 280 3.5 6.1 0.00 0.00 0.00 57 1008.2
20260509210617 71 239 1.7 11.3 0.00 0.00 0.00 65 1008.2
20260509210114 72 331 0.9 7.8 0.00 0.00 0.00 60 1008.1
20260509205608 73 282 2.6 3.5 0.00 0.00 0.00 61 1007.9
20260509205103 71 290 1.7 4.3 0.00 0.00 0.00 64 1008.1
20260509204600 73 299 1.7 4.3 0.00 0.00 0.00 63 1008.2
20260509204057 71 356 0.0 5.2 0.00 0.00 0.00 61 1008.2
20260509203552 70 229 1.7 8.7 0.00 0.00 0.00 61 1008.1
20260509203050 70 69 0.0 5.2 0.00 0.00 0.00 65 1008.1
20260509202545 70 149 3.5 4.3 0.00 0.00 0.00 68 1008.2
20260509202041 69 292 5.2 6.1 0.00 0.00 0.00 64 1008.2
20260509201536 72 82 0.0 3.5 0.00 0.00 0.00 62 1008.1
20260509201034 69 259 4.3 9.6 0.00 0.00 0.00 66 1008.4
20260509200527 70 251 2.6 11.3 0.00 0.00 0.00 63 1008.5
20260509200024 72 50 0.0 4.3 0.00 0.00 0.00 69 1008.5
20260509195520 70 229 0.0 1.7 0.00 0.00 0.00 68 1008.5
20260509195020 69 254 0.0 4.3 0.00 0.00 0.00 68 1008.6
20260509194515 69 315 1.7 2.6 0.00 0.00 0.00 66 1008.6
20260509194013 69 252 2.6 6.1 0.00 0.00 0.00 65 1008.7
20260509193513 70 256 3.5 9.6 0.00 0.00 0.00 64 1008.7
20260509193010 70 243 7.8 11.3 0.00 0.00 0.00 66 1008.9
20260509192506 70 214 1.7 9.6 0.00 0.00 0.00 66 1008.7
20260509192001 71 289 2.6 3.5 0.00 0.00 0.00 65 1008.9
20260509191456 71 322 2.6 11.3 0.00 0.00 0.00 64 1009.0
20260509190952 70 284 2.6 9.6 0.00 0.00 0.00 64 1008.8
20260509190449 68 249 2.6 9.6 0.00 0.00 0.00 65 1008.7
20260509185947 71 273 3.5 6.1 0.00 0.00 0.00 65 1008.6
20260509185444 71 75 1.7 7.0 0.00 0.00 0.00 63 1008.6
20260509184941 69 267 7.0 13.9 0.00 0.00 0.00 64 1008.6
20260509184439 70 257 1.7 13.0 0.00 0.00 0.00 63 1008.8
20260509183935 71 332 1.7 4.3 0.00 0.00 0.00 66 1008.7
20260509183429 72 285 6.1 6.1 0.00 0.00 0.00 65 1008.5
20260509182926 69 201 2.6 12.2 0.00 0.00 0.00 63 1008.4
20260509182422 69 230 3.5 7.0 0.00 0.00 0.00 63 1008.5
20260509181920 70 287 6.1 8.7 0.00 0.00 0.00 62 1008.4
20260509181418 70 270 0.0 5.2 0.00 0.00 0.00 64 1008.5
20260509180914 67 216 4.3 12.2 0.00 0.00 0.00 65 1008.7
20260509180410 68 267 7.8 11.3 0.00 0.00 0.00 65 1008.6
20260509175907 69 118 4.3 7.0 0.00 0.00 0.00 63 1008.7
20260509175403 67 267 3.5 9.6 0.00 0.00 0.00 66 1008.5
20260509174859 68 315 1.7 7.8 0.00 0.00 0.00 66 1008.8
20260509174356 70 138 2.6 5.2 0.00 0.00 0.00 67 1008.8
20260509173851 70 109 0.0 4.3 0.00 0.00 0.00 66 1008.8
20260509173341 69 237 5.2 6.1 0.00 0.00 0.00 64 1008.7
20260509172837 68 63 2.6 5.2 0.00 0.00 0.00 67 1008.8
20260509172334 67 244 5.2 7.0 0.00 0.00 0.00 68 1008.9
20260509171830 66 270 4.3 7.0 0.00 0.00 0.00 67 1009.0
20260509171326 66 252 0.0 5.2 0.00 0.00 0.00 68 1009.1
20260509170823 64 327 0.0 2.6 0.00 0.00 0.00 72 1009.1
20260509170319 62 325 0.9 7.0 0.00 0.00 0.00 72 1009.3
20260509165818 62 162 0.0 6.1 0.00 0.00 0.00 72 1009.3
20260509165312 62 254 3.5 7.0 0.00 0.00 0.00 72 1009.5
20260509164809 62 236 2.6 10.4 0.00 0.00 0.00 73 1009.5